IRIDIUM 33 DEB, 33777

Orbit data source: Space-Track

IRIDIUM 33 DEB, 33777 is space debris in LEO originally from a launch on Sun, 14 Sep 1997 UTC launched from the Tyuratam Missile And Space Complex (TTMTR). The debris from Iridium 33, an American commercial communications satellite, has been tracked extensively since its accidental collision with the defunct Russian satellite Cosmos 2251 in 2009. This event, occurring at high speed in low Earth orbit (LEO), generated thousands of pieces of space debris, significantly increasing the risk of further collisions. The Iridium 33 debris cloud has impacted space traffic management and orbital debris mitigation strategies, making it a subject of ongoing study in space situational awareness.

Loading next visibility...
Identifier
33777, 1997-051Q
Orbit
LEO
Country
Flag of USUS
Related business
Manufacturer
Unknown
Mission
Spacecraft
Bus & Motor
Unknown
Mass
Unknown
Launch date (UTC)
1997-09-14 (29 years ago)
Launch vehicle
Unknown
Launch site
Tyuratam Missile And Space Complex (TTMTR)
Object type
Payload
Rocket body
Debris
Shape & HBR
Unknown shape, 0.7 m
Radar Cross Section
Medium (>0.1 m² and <1 m²)

Expand to show TLE details & history
Last TLE update: 8 hours ago

TLE from 8 hours ago
0 IRIDIUM 33 DEB
1 33777U 97051Q   26168.11031834  .00003166  00000-0  70182-3 0  9990
2 33777  86.3780 314.0585 0006456   8.3297 351.8017 14.56864095912462
Epoch: 2026-06-17T02:38Z
TLE epoch observation values (Epoch: 2026-06-17T02:38:51.504Z)
Latitude
-0.00006°
Longitude
8.97119°
Altitude
701.874 km
Speed
7.507 km/s
True Right ascension
20h 56m 14s
True Declination
0° 00' 00"
Sunlit
Object was in full shadow at epoch
Visualization orbit readout
Latitude
Unknown
Longitude
Unknown
Altitude
Unknown
Speed
Unknown
Apparent Right ascension
Unknown
Apparent Declination
Unknown
Sunlit
N/A
Visualization observer readout
Local Sidereal Time
21:19:54
Azimuth
Unknown
Elevation
Unknown
Doppler factor
Unknown
Orbital elements
Apogee altitude
704.82 km
Perigee altitude
695.681 km
Semi-major axis
7,078.388 km
Eccentricity
0.00065
Inclination
86.378°
RAAN
314.0585°
Arg. of periapsis
8.3297°
True anomaly
351.79114°
Mean anomaly
351.8017°
Eccentric anomaly
351.79642°
Mean motion
3.64453 °/min
Orbital period
98.78 mins
BSTAR
0.00070182
Loading maneuver chart data...
Computing Atmospheric mass density...
Loading historical data...
Loading historical data...
Loading historical data...
Loading historical data...
Loading historical data...
Loading historical data...
Loading historical data...

Documentation

Showing up to 5 results
|